Time,TemperatureF,DewpointF,PressureIn,WindDirection,WindDirectionDegrees,WindSpeedMPH,WindSpeedGustMPH,Humidity,HourlyPrecipIn,Conditions,Clouds,dailyrainin,SoftwareType,DateUTC
2013-01-28 00:14:00,36.8,36.0,30.24,South,190,0.0,0.0,95,0.05,,,0.00,weatherlink.com 1.10,2013-01-28 05:14:00,
2013-01-28 00:30:00,37.4,36.0,30.23,SE,132,0.0,0.0,95,0.03,,,0.01,weatherlink.com 1.10,2013-01-28 05:30:00,
2013-01-28 00:45:00,37.8,37.0,30.22,SE,124,0.0,3.0,96,0.03,,,0.02,weatherlink.com 1.10,2013-01-28 05:45:00,
2013-01-28 01:00:00,38.1,37.0,30.20,ESE,120,0.0,3.0,96,0.02,,,0.02,weatherlink.com 1.10,2013-01-28 06:00:00,
2013-01-28 01:15:00,38.5,38.0,30.20,SSE,158,0.0,0.0,96,0.02,,,0.02,weatherlink.com 1.10,2013-01-28 06:15:00,
2013-01-28 01:30:00,38.3,37.0,30.20,SW,228,0.0,0.0,96,0.01,,,0.02,weatherlink.com 1.10,2013-01-28 06:30:00,
2013-01-28 01:45:00,37.9,37.0,30.20,East,97,0.0,2.0,96,0.00,,,0.02,weatherlink.com 1.10,2013-01-28 06:45:00,
2013-01-28 02:00:00,38.0,37.0,30.21,WSW,239,0.0,0.0,96,0.00,,,0.02,weatherlink.com 1.10,2013-01-28 07:00:00,
2013-01-28 02:15:00,38.4,38.0,30.21,SW,236,0.0,0.0,97,0.00,,,0.02,weatherlink.com 1.10,2013-01-28 07:15:00,
2013-01-28 02:30:00,38.7,38.0,30.21,SW,236,0.0,0.0,97,0.00,,,0.02,weatherlink.com 1.10,2013-01-28 07:30:00,
2013-01-28 02:45:00,39.0,38.0,30.21,SW,236,0.0,0.0,97,0.01,,,0.03,weatherlink.com 1.10,2013-01-28 07:45:00,
2013-01-28 03:00:00,39.2,39.0,30.21,SW,236,0.0,0.0,97,0.01,,,0.03,weatherlink.com 1.10,2013-01-28 08:00:00,
2013-01-28 03:15:00,39.3,39.0,30.21,SW,235,0.0,0.0,97,0.01,,,0.03,weatherlink.com 1.10,2013-01-28 08:15:00,
2013-01-28 03:30:00,39.5,39.0,30.20,SW,236,0.0,0.0,97,0.01,,,0.03,weatherlink.com 1.10,2013-01-28 08:30:00,
2013-01-28 03:45:00,39.6,39.0,30.20,SW,236,0.0,0.0,97,0.00,,,0.03,weatherlink.com 1.10,2013-01-28 08:45:00,
2013-01-28 04:00:00,39.9,39.0,30.19,SW,236,0.0,0.0,97,0.00,,,0.03,weatherlink.com 1.10,2013-01-28 09:00:00,
2013-01-28 04:15:00,40.0,39.0,30.18,SW,236,0.0,0.0,97,0.00,,,0.03,weatherlink.com 1.10,2013-01-28 09:15:00,
2013-01-28 04:30:00,40.2,39.0,30.18,SW,236,0.0,0.0,97,0.00,,,0.03,weatherlink.com 1.10,2013-01-28 09:30:00,
2013-01-28 04:45:00,40.7,40.0,30.17,SW,236,0.0,1.0,98,0.00,,,0.03,weatherlink.com 1.10,2013-01-28 09:45:00,
2013-01-28 05:00:00,41.1,41.0,30.17,SW,229,0.0,0.0,98,0.00,,,0.03,weatherlink.com 1.10,2013-01-28 10:00:00,
2013-01-28 05:15:00,41.5,41.0,30.17,SW,236,0.0,2.0,98,0.00,,,0.03,weatherlink.com 1.10,2013-01-28 10:15:00,
2013-01-28 05:30:00,41.9,41.0,30.16,SW,219,0.0,1.0,98,0.00,,,0.03,weatherlink.com 1.10,2013-01-28 10:30:00,
2013-01-28 05:45:00,42.5,42.0,30.16,SW,215,3.0,4.0,98,0.00,,,0.03,weatherlink.com 1.10,2013-01-28 10:45:00,
2013-01-28 06:00:00,43.5,43.0,30.15,SSW,200,2.0,4.0,97,0.00,,,0.03,weatherlink.com 1.10,2013-01-28 11:00:00,
2013-01-28 06:15:00,44.3,43.0,30.15,SSW,210,5.0,7.0,95,0.00,,,0.03,weatherlink.com 1.10,2013-01-28 11:15:00,
2013-01-28 06:30:00,45.1,43.0,30.14,SW,233,4.0,11.0,92,0.00,,,0.03,weatherlink.com 1.10,2013-01-28 11:30:00,
2013-01-28 06:45:00,45.3,43.0,30.14,SSW,212,2.0,8.0,90,0.00,,,0.03,weatherlink.com 1.10,2013-01-28 11:45:00,
2013-01-28 07:00:00,45.7,42.0,30.14,SW,235,1.0,8.0,88,0.00,,,0.03,weatherlink.com 1.10,2013-01-28 12:00:00,
2013-01-28 07:15:00,45.9,42.0,30.14,SSW,203,3.0,7.0,87,0.00,,,0.03,weatherlink.com 1.10,2013-01-28 12:15:00,
2013-01-28 07:30:00,46.1,42.0,30.13,SW,226,3.0,7.0,86,0.00,,,0.03,weatherlink.com 1.10,2013-01-28 12:30:00,
2013-01-28 07:45:00,47.1,43.0,30.14,SW,228,5.0,12.0,84,0.00,,,0.03,weatherlink.com 1.10,2013-01-28 12:45:00,
2013-01-28 08:03:00,47.6,42.0,30.13,SW,214,5.0,13.0,82,0.00,,,0.03,weatherlink.com 1.10,2013-01-28 13:03:00,
2013-01-28 08:16:00,48.0,42.0,30.14,SSW,208,6.0,10.0,81,0.00,,,0.03,weatherlink.com 1.10,2013-01-28 13:16:00,
2013-01-28 08:31:00,48.4,43.0,30.13,West,260,4.0,9.0,81,0.00,,,0.03,weatherlink.com 1.10,2013-01-28 13:31:00,
2013-01-28 08:46:00,49.1,43.0,30.13,South,190,3.0,12.0,80,0.00,,,0.03,weatherlink.com 1.10,2013-01-28 13:46:00,
2013-01-28 09:01:00,49.6,44.0,30.13,SW,235,10.0,10.0,80,0.00,,,0.03,weatherlink.com 1.10,2013-01-28 14:01:00,
2013-01-28 09:16:00,49.9,44.0,30.12,SW,233,4.0,12.0,80,0.00,,,0.03,weatherlink.com 1.10,2013-01-28 14:16:00,
2013-01-28 09:31:00,49.6,45.0,30.13,SW,217,3.0,15.0,84,0.02,,,0.05,weatherlink.com 1.10,2013-01-28 14:31:00,
2013-01-28 09:46:00,48.6,45.0,30.14,SW,236,3.0,10.0,87,0.02,,,0.05,weatherlink.com 1.10,2013-01-28 14:46:00,
2013-01-28 10:01:00,48.5,45.0,30.14,SW,228,5.0,12.0,88,0.03,,,0.06,weatherlink.com 1.10,2013-01-28 15:01:00,
2013-01-28 10:16:00,48.4,45.0,30.14,SW,222,1.0,6.0,89,0.03,,,0.06,weatherlink.com 1.10,2013-01-28 15:16:00,
2013-01-28 10:31:00,48.4,46.0,30.15,SW,231,1.0,9.0,90,0.01,,,0.06,weatherlink.com 1.10,2013-01-28 15:31:00,
2013-01-28 10:46:00,48.5,46.0,30.15,SW,233,1.0,6.0,90,0.01,,,0.06,weatherlink.com 1.10,2013-01-28 15:46:00,
2013-01-28 11:01:00,48.6,46.0,30.15,West,262,1.0,6.0,91,0.01,,,0.07,weatherlink.com 1.10,2013-01-28 16:01:00,
2013-01-28 11:16:00,48.6,46.0,30.15,SW,226,3.0,7.0,92,0.03,,,0.09,weatherlink.com 1.10,2013-01-28 16:16:00,
2013-01-28 11:31:00,48.7,47.0,30.15,SSW,205,1.0,7.0,93,0.03,,,0.09,weatherlink.com 1.10,2013-01-28 16:31:00,
2013-01-28 11:46:00,48.9,47.0,30.15,WSW,240,1.0,9.0,93,0.03,,,0.09,weatherlink.com 1.10,2013-01-28 16:46:00,
2013-01-28 12:01:00,49.0,47.0,30.15,SW,236,5.0,6.0,93,0.02,,,0.09,weatherlink.com 1.10,2013-01-28 17:01:00,
2013-01-28 12:16:00,49.4,48.0,30.14,SSW,197,3.0,7.0,93,0.00,,,0.09,weatherlink.com 1.10,2013-01-28 17:16:00,
2013-01-28 12:31:00,49.8,48.0,30.14,SW,215,3.0,7.0,93,0.00,,,0.09,weatherlink.com 1.10,2013-01-28 17:31:00,
2013-01-28 12:46:00,50.0,48.0,30.13,SW,217,3.0,12.0,92,0.00,,,0.09,weatherlink.com 1.10,2013-01-28 17:46:00,
2013-01-28 13:01:00,50.1,48.0,30.12,SSE,167,3.0,7.0,93,0.00,,,0.09,weatherlink.com 1.10,2013-01-28 18:01:00,
2013-01-28 13:16:00,50.4,49.0,30.12,SW,236,2.0,8.0,93,0.00,,,0.09,weatherlink.com 1.10,2013-01-28 18:16:00,
2013-01-28 13:31:00,50.6,49.0,30.12,South,181,3.0,7.0,93,0.00,,,0.09,weatherlink.com 1.10,2013-01-28 18:31:00,
2013-01-28 13:46:00,50.6,49.0,30.10,SW,218,3.0,7.0,94,0.01,,,0.10,weatherlink.com 1.10,2013-01-28 18:46:00,
2013-01-28 14:01:00,50.5,49.0,30.10,WSW,242,6.0,8.0,95,0.04,,,0.13,weatherlink.com 1.10,2013-01-28 19:01:00,
2013-01-28 14:16:00,50.4,49.0,30.09,WSW,239,2.0,4.0,95,0.05,,,0.14,weatherlink.com 1.10,2013-01-28 19:16:00,
2013-01-28 14:31:00,50.3,49.0,30.09,SW,231,2.0,5.0,96,0.05,,,0.14,weatherlink.com 1.10,2013-01-28 19:31:00,
2013-01-28 14:46:00,50.5,49.0,30.09,SW,222,3.0,6.0,96,0.04,,,0.14,weatherlink.com 1.10,2013-01-28 19:46:00,
2013-01-28 15:01:00,50.6,50.0,30.08,SW,217,6.0,8.0,96,0.01,,,0.14,weatherlink.com 1.10,2013-01-28 20:01:00,
2013-01-28 15:16:00,50.9,50.0,30.09,WSW,247,3.0,6.0,96,0.00,,,0.14,weatherlink.com 1.10,2013-01-28 20:16:00,
2013-01-28 15:31:00,51.1,50.0,30.09,SW,235,3.0,7.0,96,0.00,,,0.14,weatherlink.com 1.10,2013-01-28 20:31:00,
2013-01-28 15:46:00,51.4,50.0,30.09,SW,226,5.0,9.0,96,0.00,,,0.14,weatherlink.com 1.10,2013-01-28 20:46:00,
2013-01-28 16:01:00,51.6,50.0,30.09,SW,221,8.0,12.0,95,0.00,,,0.14,weatherlink.com 1.10,2013-01-28 21:01:00,
2013-01-28 16:16:00,51.8,51.0,30.09,SSW,204,2.0,14.0,95,0.00,,,0.14,weatherlink.com 1.10,2013-01-28 21:16:00,
2013-01-28 16:31:00,51.8,51.0,30.09,SW,236,4.0,8.0,95,0.00,,,0.14,weatherlink.com 1.10,2013-01-28 21:31:00,
2013-01-28 16:46:00,51.8,51.0,30.09,WSW,248,4.0,7.0,95,0.00,,,0.14,weatherlink.com 1.10,2013-01-28 21:46:00,
2013-01-28 17:01:00,51.9,51.0,30.09,SW,224,3.0,7.0,95,0.00,,,0.14,weatherlink.com 1.10,2013-01-28 22:01:00,
2013-01-28 17:16:00,52.0,51.0,30.09,SW,215,3.0,9.0,95,0.00,,,0.14,weatherlink.com 1.10,2013-01-28 22:16:00,
2013-01-28 17:31:00,51.9,51.0,30.09,SW,236,4.0,7.0,95,0.00,,,0.14,weatherlink.com 1.10,2013-01-28 22:31:00,
2013-01-28 17:46:00,51.9,51.0,30.09,SW,231,4.0,9.0,95,0.00,,,0.14,weatherlink.com 1.10,2013-01-28 22:46:00,
2013-01-28 18:01:00,51.9,51.0,30.09,SW,228,5.0,9.0,95,0.00,,,0.14,weatherlink.com 1.10,2013-01-28 23:01:00,
2013-01-28 18:16:00,51.9,51.0,30.09,SW,219,4.0,5.0,96,0.00,,,0.14,weatherlink.com 1.10,2013-01-28 23:16:00,
2013-01-28 18:31:00,51.9,51.0,30.10,West,259,4.0,7.0,96,0.00,,,0.14,weatherlink.com 1.10,2013-01-28 23:31:00,
2013-01-28 18:46:00,51.9,51.0,30.11,WSW,245,1.0,6.0,96,0.00,,,0.14,weatherlink.com 1.10,2013-01-28 23:46:00,
2013-01-28 19:01:00,52.0,51.0,30.11,SW,218,3.0,6.0,96,0.00,,,0.14,weatherlink.com 1.10,2013-01-29 00:01:00,
2013-01-28 19:16:00,51.9,51.0,30.11,SW,228,4.0,6.0,96,0.00,,,0.14,weatherlink.com 1.10,2013-01-29 00:16:00,
2013-01-28 19:31:00,52.0,51.0,30.11,WSW,248,3.0,5.0,96,0.00,,,0.14,weatherlink.com 1.10,2013-01-29 00:31:00,
2013-01-28 19:46:00,52.0,51.0,30.11,SSW,205,2.0,7.0,96,0.00,,,0.14,weatherlink.com 1.10,2013-01-29 00:46:00,
2013-01-28 20:01:00,52.1,51.0,30.11,West,269,4.0,6.0,96,0.00,,,0.14,weatherlink.com 1.10,2013-01-29 01:01:00,
2013-01-28 20:16:00,52.2,51.0,30.11,SW,236,4.0,8.0,97,0.00,,,0.14,weatherlink.com 1.10,2013-01-29 01:16:00,
2013-01-28 20:31:00,52.3,51.0,30.11,WSW,240,3.0,6.0,96,0.00,,,0.14,weatherlink.com 1.10,2013-01-29 01:31:00,
2013-01-28 20:46:00,52.5,52.0,30.11,SW,226,4.0,6.0,97,0.00,,,0.14,weatherlink.com 1.10,2013-01-29 01:46:00,
2013-01-28 21:01:00,52.6,52.0,30.10,SW,215,4.0,6.0,96,0.00,,,0.14,weatherlink.com 1.10,2013-01-29 02:01:00,
2013-01-28 21:17:00,52.7,52.0,30.10,SW,231,4.0,6.0,96,0.00,,,0.14,weatherlink.com 1.10,2013-01-29 02:17:00,
2013-01-28 21:32:00,52.8,52.0,30.10,SW,228,3.0,6.0,96,0.00,,,0.14,weatherlink.com 1.10,2013-01-29 02:32:00,
2013-01-28 21:47:00,52.9,52.0,30.09,SW,215,3.0,6.0,96,0.00,,,0.14,weatherlink.com 1.10,2013-01-29 02:47:00,
2013-01-28 22:02:00,53.2,52.0,30.09,SW,229,6.0,8.0,96,0.00,,,0.14,weatherlink.com 1.10,2013-01-29 03:02:00,
2013-01-28 22:17:00,53.3,52.0,30.09,SW,236,2.0,5.0,96,0.00,,,0.14,weatherlink.com 1.10,2013-01-29 03:17:00,
2013-01-28 22:32:00,53.6,53.0,30.09,SW,233,4.0,7.0,96,0.00,,,0.14,weatherlink.com 1.10,2013-01-29 03:32:00,
2013-01-28 22:47:00,53.7,52.0,30.09,SW,235,4.0,6.0,95,0.00,,,0.14,weatherlink.com 1.10,2013-01-29 03:47:00,
2013-01-28 23:02:00,53.9,53.0,30.09,SW,236,3.0,6.0,95,0.00,,,0.14,weatherlink.com 1.10,2013-01-29 04:02:00,
2013-01-28 23:17:00,54.1,53.0,30.09,WSW,239,3.0,6.0,94,0.00,,,0.14,weatherlink.com 1.10,2013-01-29 04:17:00,
2013-01-28 23:32:00,54.2,53.0,30.09,SW,233,2.0,5.0,94,0.01,,,0.15,weatherlink.com 1.10,2013-01-29 04:32:00,
2013-01-28 23:47:00,54.1,53.0,30.09,SW,222,2.0,4.0,95,0.01,,,0.15,weatherlink.com 1.10,2013-01-29 04:47:00,